Location: Malvern Link
(52.1333°N, 2.3000°W)
Time: 16:03:25
(UTC+00:00)

Cosmos 1634 Rocket - Pass Details

Date: 09 December 2021
Orbit: 959 x 993 km, 82.9° (Epoch: 23 January)

Event Time Altitude Azimuth Distance (km) Brightness Sun altitude
Rises 19:46:23 0° 255° (WSW) 3,708 7.9 -33.8°
Reaches altitude 10° 19:50:29 10° 280° (W) 2,762 7.2 -34.4°
Maximum altitude 19:53:31 14° 309° (NW) 2,503 6.7 -34.9°
Drops below altitude 10° 19:56:33 10° 338° (NNW) 2,763 6.6 -35.3°
Sets 20:00:40 0° 4° (N) 3,710 7.1 -36.0°
